Regional Weather Roundup
Issued by NWS Cleveland, OH

Home | Current Version | Previous Version | Graphics & Text | Print | Product List | Glossary On
Versions: 1 2 3 4 5 6 7 8 9 10 11 12 13 14 15 16 17 18 19 20 21 22 23 24 25 26 27 28 29 30 31 32 33 34 35 36 37 38 39 40 41 42 43 44 45 46 47 48 49 50
000
ASUS41 KCLE 232202
RWRCLE
OHIO REGIONAL WEATHER ROUNDUP
NATIONAL WEATHER SERVICE CLEVELAND, OH
600 PM EDT WED AUG 23 2017

NOTE: "FAIR" INDICATES FEW OR NO CLOUDS BELOW 12,000 FEET WITH NO
SIGNIFICANT WEATHER AND/OR OBSTRUCTIONS TO VISIBILITY.

OHZ001>008-015>018-024>027-034-035-043-044-232300-
   NORTHWEST OHIO

CITY           SKY/WX    TMP DP  RH WIND       PRES   REMARKS
DEFIANCE       NOT AVBL
FINDLAY        PTSUNNY   77  52  41 W10       29.96S
TOLEDO EXPRESS MOSUNNY   75  50  41 W12       29.95S
TOLEDO EXEC    PTSUNNY   75  52  44 NW9       29.95F
LIMA           MOSUNNY   73  52  47 NW10      29.98S
$$

OHZ009>014-019>023-028>033-038-089-232300-
   NORTHEAST OHIO

CITY           SKY/WX    TMP DP  RH WIND       PRES   REMARKS
CLE-HOPKINS    MOSUNNY   77  51  40 W15G21    29.96F
CLE-LAKEFRONT  MOSUNNY   74  55  51 W10       29.94S
CUY CO. ARPT   MOSUNNY   73  57  56 W16       29.96F
LORAIN-ELYRIA  CLOUDY    71  53  52 NW6       29.96F
ASHTABULA      MOSUNNY   69  56  62 W9G18     29.96S
AKRON-CANTON   MOSUNNY   76  51  41 NW9       29.96S
WOOSTER        SUNNY     74  53  48 W8        29.97S
MANSFIELD      PTSUNNY   74  53  48 W7        29.98S
YOUNGSTOWN     MOSUNNY   73  51  46 NW10      29.95S
$$

OHZ042-051>053-060>062-070>072-077>081-232300-
  SOUTHWEST OHIO

CITY           SKY/WX    TMP DP  RH WIND       PRES   REMARKS
CINC-COVINGTON MOSUNNY   77  54  44 N9        29.99F
CINC-LUNKEN    MOSUNNY   77  53  43 NW7       29.98F
HAMILTON       MOSUNNY   77  53  43 N9        30.00S
DAYTON         MOSUNNY   73  51  46 NW8       30.00S
WRIGHT-PAT AFB MOSUNNY   77  50  39 W8        29.98F
DAYTON GENERAL SUNNY     74  46  36 NW12      29.99S
WILMINGTON     MOSUNNY   73  54  51 NW9       29.99S
$$

OHZ036-037-039>041-045>050-054>059-063>069-073>076-082>088-232300-
  CENTRAL AND SOUTHEAST OHIO

CITY           SKY/WX    TMP DP  RH WIND       PRES   REMARKS
COLUMBUS       MOSUNNY   74  52  46 NW9       29.97S
OSU AIRPORT    CLOUDY    73  55  53 NW7       29.97F
BOLTON FIELD   PTSUNNY   72  54  53 NW5       29.99S
RICKENBACK AFB SUNNY     76  51  41 W10       29.97F
NEWARK         PTSUNNY   76  51  41 N8        29.97S
MARION         MOSUNNY   75  51  43 NW9       29.97F
LANCASTER      CLOUDY    77  55  46 VRB6      29.98F
ZANESVILLE     MOSUNNY   76  54  46 NW7       29.97S
NEW PHILLY     NOT AVBL
$$




USA.gov is the U.S. government's official web portal to all federal, state and local government web resources and services.